Probability
0 0 0 0 0 0 0 0 0 0 0 0 0 0 0 0 0 0 0 0 0 0 0 0 0 0 0 0 0 0 0 0 0 0 0 0 0 0 0 0 0 0 0 0
0 0 0 0 0 0 0 0 0 0 0 0 0 0 0 0 0 0 0 0 0 0 0 0 0 0 0 0 0 0 0 0 0 0 0 0 0 0 0 0 0 0 0 0
0 0 0 0 0 0 0 0 0 0 0 0 0 0 0 0 0 0 0 0 0 0 0 0 0 0 0 0 0 0 0 0 0 0 0 0 0 0 0 0 0 0 0 0
0 0 0 0 0 0 0 0 0 0 0 0 0 0 0 0 0 0 0 0 0 0 0 0 0 0 0 0 0 0 0 0 0 0 0 0 0 0 0 0 0 0 0 0
0 0 0 0 0 0 0 0 0 0 0 0 0 0 0 0 0 0 0 0 0 0 0 0 0 0 0 0 0 0 0 0 0 0 0 0 0 0 0 0 0 0 0 0
0 0 0 0 0 0 0 0 0 0 0 0 0 0 0 0 0 0 0 0 0 0 0 0 0 0 0 0 0 0 0 0 0 0 0 0 0 0 0 0 0 0 0 0
0 0 0 0 0 0 0 0 0 0 0 0 0 0 0 0 0 0 0 0 0 0 0 0 0 0 0 0 0 0 0 0 0 0 0 0 0 0 0 0 0 0 0 0
0 0 0 0 0 0 0 0 0 0 0 0 0 0 0 0 0 0 0 0 0 0 0 0 0 0 0 0 0 0 0 0 0 0 0 0 0 0 0 0 0 0 0 0
0 0 0 0 0 0 0 0 0 0 0 0 0 0 0 0 0 0 0 0 0 0 0 0 0 0 0 0 0 0 0 0 0 0 0 0 0 0 0 0 0 0 0 0
0 0 0 0 0 0 0 0 0 0 0 0 0 0 0 0 0 0 0 0 0 0 0 0 0 0 0 0 0 0 0 0 0 0 0 0 0 0 0 0 0 0 0 0
0 0 0 0 0 0 0 0 0 0 0 0 0 0 0 0 0 0 0 0 0 0 0 0 0 0 0 0 0 0 0 0 0 0 0 0 0 0 0 0 0 0 0 0
0 0 0 0 0 0 0 0 0 0 0 0 0 0 0 0 0 0 0 0 0 0 0 0 0 0 0 0 0 0 0 0 0 0 0 0 0 0 0 0 0 0 0 0
0 0 0 0 0 0 0 0 0 0 0 0 0 0 0 0 0 0 0 0 0 0 0 0 0 0 0 0 0 0 0 0 0 0 0 0 0 0 0 0 0 0 0 0
0 0 0 0 0 0 0 0 0 0 0 0 0 0 0 0 0 0 0 0 0 0 0 0 0 0 0 0 0 0 0 0 0 0 0 0 0 0 0 0 0 0 0 0
0 0 0 0 0 0 0 0 0 0 0 0 0 0 0 0 0 0 0 0 0 0 0 0 0 0 0 0 0 0 0 0 0 0 0 0 0 0 0 0 0 0 0 0
0 0 0 0 0 0 0 0 0 0 0 0 0 0 0 0 0 0 0 0 0 0 0 0 0 0 0 0 0 0 0 0 0 0 0 0 0 0 0 0 0 0 0 0
0 0 0 0 0 0 0 0 0 0 0 0 0 0 0 0 0 0 0 0 0 0 0 0 0 0 0 0 0 0 0 0 0 0 0 0 0 0 0 0 0 0 0 0
0 0 0 0 0 0 0 0 0 0 0 0 0 0 0 0 0 0 0 0 0 0 0 0 0 0 0 0 0 0 0 0 0 0 0 0 0 0 0 0 0 0 0 0
0 0 0 0 0 0 0 0 0 0 0 0 0 0 0 0 0 0 0 0 0 0 0 0 0 0 0 0 0 0 0 0 0 0 0 0 0 0 0 0 0 0 0 0
0 0 0 0 0 0 0 0 0 0 0 0 0 0 0 0 0 0 0 0 0 0 0 0 0 0 0 0 0 0 0 0 0 0 0 0 0 0 0 0 0 0 0 0
0 0 0 0 0 0 0 0 0 0 0 0 0 0 0 0 0 0 0 0 0 0 0 0 0 0 0 0 0 0 0 0 0 0 0 0 0 0 0 0 0 0 0 0
0 0 0 0 0 0 0 0 0 0 0 0 0 0 0 0 0 0 0 0 0 0 0 0 0 0 0 0 0 0 0 0 0 0 0 0 0 0 0 0 0 0 0 0
0 0 0 0 0 0 0 0 0 0 0 0 0 0 0 0 0 0 0 0 0 0 0 0 0 0 0 0 0 0 0 0 0 0 0 0 0 0 0 0 0 0 0 0
0 0 0 0 0 0 0 0 0 0 0 0 0 0 0 0 0 0 0 0 0 0 0 0 0 0 0 0 0 0 0 0 0 0 0 0 0 0 0 0 0 0 0 0
0 0 0 0 0 0 0 0 0 0 0 0 0 0 0 0 0 0 0 0 0 0 0 0 0 0 0 0 0 0 0 0 0 0 0 0 0 0 0 0 0 0 0 0
0 0 0 0 0 0 0 0 0 0 0 0 0 0 0 0 0 0 0 0 0 0 0 0 0 0 0 0 0 0 0 0 0 0 0 0 0 0 0 0 0 0 0 0
Height
5892 5894 5894 5894 5893 5892 5890 5888 5886 5884 5881 5878 5874 5871 5867 5864 5861 5858 5854 5851 5848 5844 5840 5836 5832 5828 5824 5820 5816 5813 5811 5808 5806 5805 5803 5802 5802 5802 5803 5804 5805 5807 5810 5812
5890 5891 5891 5890 5890 5888 5887 5885 5883 5880 5877 5874 5871 5868 5865 5861 5859 5856 5852 5849 5846 5842 5838 5833 5829 5825 5821 5817 5813 5809 5806 5804 5801 5799 5797 5795 5795 5794 5794 5795 5796 5797 5800 5802
5887 5889 5888 5888 5887 5886 5885 5883 5880 5877 5874 5871 5869 5866 5863 5860 5857 5854 5851 5848 5844 5841 5837 5832 5828 5823 5819 5815 5811 5807 5804 5800 5797 5794 5792 5790 5789 5788 5787 5787 5788 5788 5790 5792
5884 5885 5885 5885 5885 5884 5882 5880 5878 5875 5872 5870 5868 5865 5862 5859 5856 5854 5851 5847 5844 5840 5836 5832 5827 5823 5819 5814 5810 5806 5802 5799 5795 5791 5789 5786 5784 5782 5781 5781 5780 5780 5781 5783
5882 5883 5883 5883 5883 5882 5880 5878 5876 5874 5871 5869 5866 5864 5862 5859 5856 5854 5851 5847 5844 5840 5836 5832 5828 5823 5819 5814 5810 5806 5802 5798 5794 5790 5786 5783 5781 5779 5777 5776 5775 5774 5775 5775
5880 5881 5882 5882 5881 5880 5879 5878 5875 5873 5870 5868 5865 5863 5862 5859 5856 5854 5851 5848 5844 5840 5837 5833 5828 5824 5819 5815 5811 5806 5801 5797 5793 5789 5785 5782 5779 5776 5774 5772 5770 5769 5769 5769
5879 5880 5881 5881 5880 5880 5879 5878 5876 5873 5870 5868 5865 5863 5862 5859 5857 5854 5851 5848 5844 5841 5837 5833 5829 5825 5820 5816 5811 5807 5802 5798 5793 5789 5785 5782 5778 5775 5772 5770 5768 5766 5765 5764
5878 5879 5880 5880 5880 5879 5878 5877 5876 5873 5870 5868 5866 5864 5863 5860 5857 5854 5851 5848 5845 5841 5838 5834 5830 5826 5821 5817 5812 5808 5803 5798 5794 5790 5785 5781 5778 5774 5771 5768 5766 5764 5762 5760
5877 5879 5879 5879 5879 5879 5878 5877 5876 5874 5871 5869 5867 5865 5863 5860 5858 5855 5852 5849 5846 5842 5838 5835 5831 5826 5822 5818 5813 5809 5804 5799 5794 5790 5786 5782 5778 5774 5771 5767 5765 5762 5760 5757
5877 5878 5879 5879 5880 5879 5879 5877 5876 5874 5872 5870 5869 5866 5864 5861 5859 5856 5853 5850 5846 5843 5839 5835 5831 5827 5823 5819 5814 5809 5805 5800 5795 5791 5786 5782 5778 5774 5770 5767 5764 5761 5758 5756
5877 5878 5880 5880 5880 5879 5879 5878 5876 5875 5873 5871 5869 5870 5865 5862 5859 5857 5854 5850 5847 5844 5840 5836 5832 5828 5824 5820 5815 5811 5806 5801 5796 5792 5787 5783 5778 5774 5770 5766 5763 5760 5757 5754
5877 5879 5880 5880 5880 5880 5879 5878 5877 5876 5874 5871 5870 5871 5866 5863 5860 5857 5854 5851 5848 5844 5841 5837 5833 5829 5825 5821 5817 5812 5807 5803 5798 5793 5788 5784 5779 5775 5770 5766 5762 5759 5755 5752
5877 5879 5881 5881 5883 5882 5880 5879 5877 5876 5874 5872 5870 5871 5866 5863 5860 5858 5855 5852 5848 5845 5841 5838 5834 5830 5826 5822 5818 5814 5809 5804 5800 5795 5790 5785 5780 5775 5771 5766 5762 5758 5754 5751
5878 5880 5882 5883 5882 5881 5880 5880 5878 5877 5875 5873 5871 5869 5867 5864 5861 5858 5856 5852 5849 5846 5842 5839 5835 5831 5828 5824 5820 5815 5811 5806 5801 5796 5792 5786 5781 5776 5771 5767 5762 5758 5753 5749
5878 5880 5881 5882 5882 5881 5881 5880 5878 5877 5875 5874 5872 5869 5867 5864 5862 5859 5856 5853 5850 5847 5843 5840 5836 5833 5829 5825 5821 5817 5813 5808 5803 5798 5793 5788 5783 5778 5772 5767 5762 5757 5753 5748
5879 5880 5881 5882 5882 5881 5881 5880 5879 5877 5876 5874 5872 5870 5867 5865 5862 5859 5857 5854 5851 5847 5844 5840 5837 5833 5830 5826 5822 5818 5814 5809 5805 5800 5795 5790 5784 5779 5773 5768 5762 5757 5752 5746
5879 5880 5881 5881 5881 5881 5881 5880 5878 5877 5876 5874 5872 5871 5868 5865 5862 5860 5857 5854 5851 5848 5845 5841 5838 5834 5831 5827 5823 5819 5815 5811 5806 5801 5796 5791 5785 5780 5774 5768 5763 5757 5751 5745
5879 5879 5880 5880 5881 5881 5882 5879 5878 5877 5875 5873 5872 5870 5868 5865 5863 5860 5857 5854 5851 5848 5845 5842 5838 5835 5831 5828 5824 5820 5816 5811 5807 5802 5797 5792 5787 5781 5775 5769 5763 5757 5751 5744
5877 5878 5879 5879 5879 5879 5879 5878 5876 5875 5874 5872 5870 5869 5867 5864 5862 5859 5857 5854 5851 5848 5845 5842 5838 5835 5831 5828 5824 5820 5816 5812 5808 5803 5798 5793 5788 5782 5776 5770 5764 5757 5750 5744
5876 5876 5877 5877 5877 5877 5878 5876 5875 5875 5872 5871 5869 5867 5865 5863 5861 5859 5856 5853 5850 5847 5844 5841 5838 5834 5831 5827 5824 5820 5816 5812 5808 5803 5799 5794 5788 5783 5777 5771 5764 5758 5751 5744
5873 5874 5874 5874 5874 5874 5874 5873 5873 5873 5871 5868 5866 5864 5862 5860 5859 5857 5854 5851 5848 5845 5842 5839 5836 5833 5830 5826 5823 5819 5815 5812 5808 5803 5799 5794 5789 5783 5778 5772 5765 5759 5752 5745
5870 5870 5870 5871 5871 5873 5870 5870 5870 5869 5866 5864 5863 5861 5859 5857 5855 5853 5851 5848 5846 5843 5840 5837 5834 5831 5828 5824 5821 5818 5814 5810 5806 5802 5798 5793 5789 5783 5778 5772 5766 5760 5753 5747
5866 5867 5866 5867 5868 5867 5866 5865 5864 5863 5861 5860 5859 5857 5855 5853 5851 5849 5847 5844 5842 5840 5837 5834 5831 5828 5825 5822 5819 5816 5812 5808 5805 5801 5797 5792 5788 5783 5778 5773 5767 5761 5755 5749
5861 5861 5861 5861 5861 5861 5860 5859 5859 5857 5856 5855 5854 5852 5851 5849 5847 5844 5842 5840 5838 5835 5833 5830 5828 5825 5822 5819 5816 5813 5809 5806 5802 5798 5795 5791 5787 5782 5778 5773 5768 5762 5757 5751
5856 5856 5855 5855 5856 5856 5855 5854 5853 5852 5851 5850 5849 5847 5846 5844 5842 5840 5837 5835 5833 5831 5828 5826 5823 5820 5818 5815 5812 5809 5806 5803 5799 5796 5792 5789 5785 5781 5777 5772 5768 5763 5758 5752
5849 5850 5850 5850 5850 5850 5849 5848 5847 5846 5845 5844 5843 5841 5840 5838 5837 5835 5832 5830 5828 5825 5823 5821 5818 5816 5813 5810 5807 5804 5801 5798 5795 5792 5789 5786 5782 5779 5775 5771 5767 5763 5758 5754
Wind_Speed
20 19 18 17 17 18 19 20 21 21 21 21 21 21 21 21 21 22 23 23 23 23 23 23 23 23 23 22 21 21 21 22 23 24 25 26 27 29 30 32 33 35 36 37
19 17 16 16 16 17 18 19 20 20 20 20 20 19 19 19 19 20 20 20 20 20 20 21 21 20 20 19 19 18 18 18 18 19 20 22 23 25 26 28 31 33 35 37
17 15 15 14 14 15 16 17 18 18 18 18 18 16 17 17 17 17 17 17 17 18 19 19 20 19 19 19 18 18 17 17 17 17 17 18 19 20 22 24 26 29 32 34
15 13 12 12 12 13 14 15 16 17 17 16 15 14 14 14 14 14 14 15 16 17 18 19 19 19 19 19 19 18 18 17 17 16 16 15 15 16 17 19 21 23 26 29
12 11 10 9 9 10 11 13 14 14 14 13 13 12 12 12 11 12 13 14 16 16 18 19 19 19 20 20 20 19 19 18 18 17 16 15 14 14 14 15 16 18 21 24
11 8 6 5 6 8 9 11 11 12 12 12 12 12 11 10 10 12 13 15 16 17 17 18 19 20 20 21 21 21 20 19 19 18 16 15 15 14 13 13 13 15 16 19
9 6 3 3 4 6 8 9 10 11 12 11 12 11 11 10 11 13 14 15 16 17 18 18 19 20 21 22 22 22 21 20 20 18 17 16 15 14 13 13 12 12 14 15
8 5 2 0 2 5 6 8 10 11 11 11 11 11 11 11 12 13 14 15 16 17 17 17 18 19 20 22 22 22 22 21 21 20 19 18 16 15 14 13 12 12 12 13
8 5 3 2 2 4 6 8 9 10 10 11 11 11 12 12 13 14 15 16 17 17 17 17 18 19 20 21 22 22 22 22 21 20 19 19 17 16 15 14 13 12 12 12
8 5 4 2 2 3 5 6 8 8 9 10 10 11 11 12 13 14 15 16 17 17 17 17 19 20 20 21 22 22 23 23 22 21 20 19 18 17 16 15 14 13 12 12
8 6 4 3 2 3 4 5 6 8 9 9 10 11 11 12 13 14 15 16 16 16 17 18 18 19 20 21 22 23 23 23 23 23 22 21 19 18 17 16 15 14 13 13
8 6 5 3 3 4 5 6 7 7 8 9 9 10 11 12 13 14 15 15 16 16 17 17 18 19 20 21 22 23 23 24 24 24 24 23 22 20 19 17 16 15 14 14
9 7 5 3 3 4 6 7 7 8 9 9 10 10 11 12 13 14 14 15 16 16 16 17 17 18 19 20 21 23 24 24 25 25 25 25 24 23 21 19 18 17 16 16
9 7 5 3 2 3 5 7 8 9 9 10 10 11 11 12 12 13 14 15 16 16 16 17 17 18 19 20 21 22 23 24 25 26 26 26 25 25 23 22 21 19 19 18
9 6 4 2 1 3 4 6 8 9 10 10 11 12 12 12 13 13 14 15 16 16 16 16 17 18 19 19 21 22 23 24 25 26 27 27 26 26 25 24 23 22 21 21
8 6 4 2 0 2 4 5 7 8 10 11 12 12 13 13 13 14 14 15 16 16 16 16 16 17 18 19 20 21 22 24 25 26 27 28 28 27 26 26 25 24 24 23
7 5 3 2 2 2 3 5 6 8 9 10 11 12 13 13 14 14 14 15 16 16 16 16 16 17 17 18 20 21 22 23 24 25 27 28 28 28 28 27 27 26 25 26
6 5 4 4 3 3 4 5 6 8 9 10 11 12 12 13 13 14 14 15 15 15 16 16 16 16 17 18 19 20 21 22 24 25 26 27 28 29 29 29 29 28 27 27
6 6 6 6 6 5 6 7 8 9 10 10 11 12 12 13 13 14 14 14 15 15 15 16 16 17 17 17 18 19 20 21 23 24 25 26 27 29 29 30 30 30 29 29
8 8 8 9 9 9 9 10 10 11 11 12 13 13 13 13 14 14 14 14 15 15 15 16 16 17 17 18 18 19 20 21 22 23 24 25 26 28 29 30 31 31 31 31
11 11 12 12 13 12 12 12 13 13 14 15 15 15 16 15 15 15 15 16 16 16 17 17 17 18 18 19 19 20 20 21 22 23 24 24 25 27 28 29 30 31 32 32
14 14 15 15 16 15 15 15 16 17 17 18 18 18 18 18 18 18 18 18 18 18 19 19 19 20 20 20 20 20 21 22 22 23 23 24 25 26 27 28 29 30 32 32
17 17 17 18 17 17 17 18 18 19 19 20 20 20 20 21 21 21 21 21 21 21 21 21 21 21 22 22 22 22 22 22 23 23 23 24 24 25 26 27 28 29 30 31
19 19 19 19 19 18 19 19 20 21 22 22 22 22 22 22 23 23 24 24 24 24 23 23 23 23 23 23 23 23 23 23 24 24 24 24 24 24 25 26 26 27 28 29
21 21 21 21 21 20 20 22 22 23 24 24 24 23 23 23 24 24 25 25 26 26 25 25 25 25 25 25 25 25 24 24 24 24 24 24 24 24 24 25 25 26 26 27
23 22 23 22 23 23 23 24 25 25 26 26 26 26 25 25 26 26 27 27 28 28 27 27 27 27 27 27 27 27 26 26 26 26 25 25 25 24 24 24 25 25 24 24
Wind_Direction
249 257 267 276 284 292 299 304 310 315 318 320 322 321 320 321 322 323 323 324 326 325 325 325 323 321 319 316 312 307 303 297 291 285 281 277 272 267 263 259 255 252 250 249
248 256 267 276 286 295 302 308 313 318 323 325 326 325 324 326 326 328 330 331 333 335 337 337 337 335 334 331 328 323 318 313 306 298 291 284 277 272 268 264 259 254 251 248
245 255 265 276 287 296 306 313 320 324 328 329 330 330 330 331 332 334 337 341 344 346 348 349 349 349 348 347 345 340 334 329 324 315 307 298 287 279 273 268 263 257 253 250
240 250 263 277 290 303 313 320 325 330 333 337 339 340 337 338 340 344 348 351 353 356 359 359 359 360 0 359 357 353 349 344 339 333 326 316 304 294 284 276 270 262 256 251
233 245 261 279 299 313 323 329 334 338 344 348 351 354 352 354 356 1 3 2 2 5 7 8 7 7 7 6 3 359 356 353 349 346 341 335 324 312 300 292 281 270 262 255
227 239 254 283 310 326 334 339 345 351 356 2 6 10 9 12 13 12 9 8 9 9 9 9 10 10 10 9 7 5 2 0 358 355 353 348 342 332 320 309 296 283 272 263
217 222 241 293 327 338 345 353 360 4 10 17 21 24 25 23 18 13 11 11 8 7 7 7 9 11 11 10 9 8 7 6 5 3 0 356 351 345 336 327 315 302 287 276
200 198 200 356 358 353 360 5 9 15 23 27 30 30 28 26 21 17 15 10 7 5 5 8 8 8 8 8 8 8 8 6 5 3 3 2 360 355 348 340 331 320 307 295
183 173 158 105 36 11 10 11 15 23 30 34 33 31 29 24 20 16 12 8 6 5 6 6 5 6 6 6 7 8 7 6 5 4 3 3 1 360 357 351 344 337 326 313
171 158 140 117 73 27 15 13 16 24 31 35 33 30 25 21 16 12 9 6 5 6 6 5 7 8 9 8 9 8 7 8 9 8 5 4 3 360 356 353 350 343 335 328
165 155 137 120 77 37 21 15 17 25 29 29 27 26 22 18 12 9 6 5 5 6 6 7 10 12 12 12 11 11 13 14 14 14 12 8 5 3 360 356 351 346 340 335
165 156 139 115 73 39 31 22 18 20 22 21 19 20 14 13 9 6 5 5 7 8 9 11 14 14 15 15 15 16 16 17 17 16 15 13 10 6 3 359 355 350 344 338
164 158 148 123 78 42 30 25 22 20 21 19 17 16 12 11 10 8 7 8 10 11 12 14 16 17 17 17 19 19 19 20 19 18 16 14 12 11 8 4 360 355 348 341
160 157 151 129 75 40 32 24 21 19 18 17 16 14 11 9 7 8 10 10 11 12 13 16 17 18 19 20 21 21 21 21 20 19 17 15 14 13 11 8 4 360 354 347
161 159 158 149 77 39 31 23 18 16 16 16 15 14 11 9 8 9 10 11 11 12 13 14 16 18 19 20 21 21 20 20 20 19 17 16 14 13 11 9 6 3 358 352
167 169 176 181 194 13 19 16 11 8 8 10 13 14 13 12 11 11 11 10 10 11 13 14 16 17 18 18 18 18 18 17 18 18 17 16 14 13 11 9 6 3 360 355
179 187 201 219 250 307 344 353 353 353 355 358 1 4 6 7 8 8 8 7 8 9 10 12 13 14 14 14 14 14 14 15 15 14 14 14 13 13 12 10 7 3 0 357
195 208 226 243 261 286 307 325 334 338 342 346 350 353 355 357 359 1 1 360 360 1 4 5 6 6 7 7 8 10 10 11 11 11 11 11 11 11 11 10 8 5 2 359
215 229 245 259 271 282 294 306 313 319 326 330 335 339 342 345 348 351 351 350 350 351 352 354 356 357 357 358 359 1 3 4 5 5 6 6 7 8 9 9 8 7 5 2
238 246 257 266 274 281 290 296 300 304 310 314 317 320 323 328 331 335 337 338 339 340 341 342 344 346 347 348 348 350 352 353 355 357 359 1 2 4 6 6 7 7 7 5
248 254 261 267 273 279 286 289 291 294 301 303 307 310 313 316 319 322 324 326 328 331 332 333 334 335 337 337 339 341 343 345 347 350 352 354 357 359 2 4 5 6 7 7
256 260 264 269 273 280 283 284 287 291 294 297 300 303 306 309 311 314 315 318 319 321 323 326 328 330 331 331 331 333 336 338 341 344 347 349 351 354 357 359 2 4 6 8
261 264 268 270 274 277 279 281 284 285 287 290 293 297 300 303 306 308 310 312 313 315 317 319 321 322 324 326 326 327 330 332 334 338 341 343 346 349 351 354 358 1 4 7
263 265 268 270 272 275 276 278 279 280 283 287 290 293 296 299 302 305 307 309 311 312 313 315 316 317 318 320 321 323 325 326 328 331 334 337 340 343 346 349 352 356 1 4
265 266 268 270 273 274 276 278 280 283 285 287 289 292 295 297 300 302 304 306 308 309 310 311 312 313 314 315 316 318 320 322 323 325 327 330 333 336 340 343 346 350 355 359
266 267 269 271 273 275 276 277 280 282 284 287 290 293 295 297 300 301 302 303 304 305 306 308 309 310 311 312 312 313 315 317 318 320 322 325 327 330 332 336 339 343 347 353